This demonstration page uses our WeatherBlox Daily Observations layout. Learn more.

Left ArrowRight Arrow

39.01783, -85.05884

Hourly Observations for October 31, 2018

Temp ( °F °C ) Dew Point ( °F °C ) Humidity (%) Winds ( mph kmh ) Pressure ( in mb ) Visibility ( mi km ) Precip ( " mm )
12:52 am 00:52 Mostly Cloudy 60 15.6 50 10 70 70 SSW 12 19 29.93 1014 10 16 N/A
1:52 am 01:52 Mostly Clear 61 16.1 52 11.1 72 72 SSW 13 20 29.93 1013 10 16 N/A
2:52 am 02:52 Mostly Cloudy 61 16.1 53 11.7 75 75 S 12 19 29.92 1013 10 16 N/A
3:52 am 03:52 Mostly Cloudy 62 16.7 53 11.7 73 73 SSW 15 24 29.91 1013 10 16 N/A
4:52 am 04:52 Cloudy 61 16.1 54 12.2 78 78 SSW 12 19 29.90 1013 10 16 N/A
5:52 am 05:52 Mostly Cloudy 61 16.1 54 12.2 78 78 S 13 20 29.90 1013 10 16 N/A
6:52 am 06:52 Cloudy 61 16.1 55 12.8 81 81 S 13 20 29.89 1012 10 16 N/A
7:52 am 07:52 Mostly Cloudy 62 16.7 56 13.3 80 80 SSW 16 26 29.89 1012 10 16 N/A
8:52 am 08:52 Mostly Cloudy 63 17.2 56 13.3 78 78 SSW 18 30 29.88 1012 10 16 N/A
9:52 am 09:52 Mostly Cloudy 64 17.8 56 13.3 75 75 S 17 28 29.88 1012 10 16 N/A
10:52 am 10:52 Cloudy 66 18.9 57 13.9 73 73 SSW 17 28 29.88 1012 10 16 N/A
11:05 am 11:05 Cloudy with Light Rain 66 18.9 57 13.9 73 73 SSW 18 30 29.88 1012 3 5 N/A
11:14 am 11:14 Cloudy with Light Rain 65 18.3 58 14.4 78 78 SW 12 19 29.88 1012 2 2 0.01 0.25
11:17 am 11:17 Cloudy with Light Rain 64 17.8 59 15 84 84 SW 12 19 29.88 1012 5 8 0.04 1.02
11:52 am 11:52 Cloudy with Light Rain 63 17.2 60 15.6 90 90 SSW 10 17 29.89 1012 5 8 0.05 1.27
12:03 pm 12:03 Cloudy with Light Rain 63 17.2 60 15.6 90 90 SW 10 17 29.88 1012 3 4 0.01 0.25
12:46 pm 12:46 Cloudy with Light Rain 63 17 61 16 94 94 SW 12 19 29.88 1012 3 4 0.09 2.29
12:52 pm 12:52 Cloudy with Light Rain 62 16.7 61 16.1 96 96 SSW 12 19 29.90 1012 5 8 0.09 2.29
1:09 pm 13:09 Cloudy with Rain 62 16.7 61 16.1 96 96 SSW 13 20 29.91 1013 2 3 0.01 0.25
1:39 pm 13:39 Cloudy with Mist and Fog 62 16.7 61 16.1 96 96 SSW 13 20 29.91 1013 6 10 0.05 1.27
1:52 pm 13:52 Cloudy with Light Rain 63 17.2 62 16.7 97 97 SSW 13 20 29.88 1012 6 10 0.06 1.52
1:58 pm 13:58 Cloudy with Light Rain 63 17.2 62 16.7 97 97 SSW 10 17 29.85 1011 6 10 N/A
2:16 pm 14:16 Cloudy with Light Rain 63 17.2 62 16.7 97 97 SSW 9 15 29.85 1011 6 10 N/A
2:52 pm 14:52 Cloudy with Light Rain 63 17.2 62 16.7 97 97 SW 8 13 29.87 1011 7 11 N/A
3:07 pm 15:07 Cloudy with Rain 63 17.2 62 16.7 97 97 SSW 10 17 29.85 1011 3 5 0.03 0.76
3:28 pm 15:28 Cloudy with Light Rain 63 17.2 63 17.2 100 100 SSW 8 13 29.85 1011 5 8 0.06 1.52
3:45 pm 15:45 Cloudy with Light Rain 64 17.8 63 17.2 96 96 SSW 9 15 29.85 1011 5 8 0.07 1.78
3:52 pm 15:52 Cloudy with Light Rain 64 17.8 63 17.2 96 96 SSW 8 13 29.85 1011 6 10 0.07 1.78
4:52 pm 16:52 Cloudy with Light Rain 64 17.8 63 17.2 96 96 SSW 6 9 29.85 1011 7 11 N/A
5:10 pm 17:10 Cloudy with Mist and Fog 64 17.8 63 17.2 96 96 SSW 6 9 29.83 1010 5 8 N/A
5:31 pm 17:31 Cloudy with Light Rain 64 17.8 63 17.2 96 96 SSW 5 7 29.83 1010 4 6 N/A
5:52 pm 17:52 Cloudy with Light Rain 64 17.8 63 17.2 96 96 SSW 5 7 29.85 1011 6 10 N/A
6:04 pm 18:04 Cloudy with Light Rain 64 17.8 63 17.2 96 96 SSW 5 7 29.85 1011 5 8 N/A
6:17 pm 18:17 Cloudy with Light Rain 63 17.2 63 17.2 100 100 S 5 7 29.85 1011 4 6 N/A
6:52 pm 18:52 Cloudy with Light Rain 63 17.2 63 17.2 100 100 SSW 6 9 29.86 1011 5 8 0.02 0.51
7:17 pm 19:17 Cloudy with Light Rain 63 17.2 63 17.2 100 100 S 6 9 29.85 1011 5 8 0.04 1.02
7:52 pm 19:52 Cloudy with Light Rain 63 17.2 63 17.2 100 100 SSW 7 11 29.87 1011 4 6 0.06 1.52
8:43 pm 20:43 Cloudy with Light Rain 61 16.1 60 15.6 97 97 NNW 12 19 29.88 1012 1 2 0.02 0.51
8:49 pm 20:49 Cloudy with Light Rain 61 16 59 15 94 94 NNW 10 17 29.88 1012 3 4 0.02 0.51
8:52 pm 20:52 Cloudy with Light Rain 59 15 59 15 100 100 NNW 10 17 29.87 1011 3 4 0.02 0.51
8:54 pm 20:54 Cloudy with Light Rain 59 15 59 15 100 100 NW 10 17 29.88 1012 1 2 N/A
9:44 pm 21:44 Cloudy with Light Rain 58 14.4 58 14.4 100 100 N 6 9 29.88 1012 1 2 0.01 0.25
9:52 pm 21:52 Cloudy with Light Rain 58 14.4 58 14.4 100 100 N 6 9 29.88 1012 1 2 0.01 0.25
10:52 pm 22:52 Cloudy with Light Rain 57 13.9 57 13.9 100 100 NE 9 15 29.86 1011 3 5 0.01 0.25
11:13 pm 23:13 Cloudy with Light Rain 57 13.9 56 13.3 96 96 E 3 6 29.88 1012 2 2 0.02 0.51
11:52 pm 23:52 Cloudy with Mist and Fog 57 13.9 57 13.9 100 100 E 6 9 29.84 1011 2 2 0.02 0.51

Powered by AerisWeather